Location: Orangeville
(43.9200°N, 80.0943°W)
Time: 12:49:19
(UTC-05:00)

Tiangong - Pass Details

Date: 11 December 2021
Orbit: 383 x 386 km, 41.5° (Epoch: 19 January)

Event Time Altitude Azimuth Distance (km) Brightness Sun altitude
Rises 18:32:08 0° 251° (WSW) 2,273 6.6 -18.9°
Reaches altitude 10° 18:34:15 10° 245° (WSW) 1,417 5.1 -19.3°
Enters shadow 18:37:18 46° 173° (S) 530 1.7 -19.8°
